Stations météo

Publicité
Dinard, France (7125): Température de l'air & dewpoint: 21.05.2019 06:00:00 - 27.05.2019 06:00:00 (CEST)Dinard, France (7125): Température de l'air 5cm: 21.05.2019 06:00:00 - 27.05.2019 06:00:00 (CEST)Dinard, France (7125): Température de l'air -20cm: 21.05.2019 06:00:00 - 27.05.2019 06:00:00 (CEST)Dinard, France (7125): Vitesse du vent & gusts: 21.05.2019 06:00:00 - 27.05.2019 06:00:00 (CEST)Dinard, France (7125): Direction du vent: 21.05.2019 06:00:00 - 27.05.2019 06:00:00 (CEST)Dinard, France (7125): reduced air pressure: 21.05.2019 06:00:00 - 27.05.2019 06:00:00 (CEST)Dinard, France (7125): visibility: 21.05.2019 06:00:00 - 27.05.2019 06:00:00 (CEST)Dinard, France (7125): Ensoleillement: 21.05.2019 06:00:00 - 27.05.2019 06:00:00 (CEST)Dinard, France (7125): Quantités de précipitations: 21.05.2019 06:00:00 - 27.05.2019 06:00:00 (CEST)
Date & Time tt [°C] td [°C] tt 5cm [°C] tt -20cm [°C] ff [km/h] ff [knt] fx [km/h] fx [knt] dd ppp [hPa] vv [km] sd [min] rr [mm]
27.05.2019 06:00:00 - - - - - - - - - - - - -
27.05.2019 05:00:00 12,2 11,1 11,8 17,3 11 6 23 13 WNW 1015,4 15 0 0,0
27.05.2019 04:00:00 12,4 11,6 12,1 17,4 16 9 32 18 WNW 1015,6 14 0 0,0
27.05.2019 03:00:00 12,7 12,2 12,6 17,5 21 11 34 18 WNW 1015,8 17 0 0,0
27.05.2019 02:00:00 13,1 12,6 13,1 17,7 19 10 32 17 NW 1016,0 3,2 0 0,2
27.05.2019 01:00:00 14,0 13,5 14,0 17,8 7 4 17 9 W 1016,1 5 0 0,2
27.05.2019 00:00:00 14,2 13,7 14,0 17,9 9 5 13 7 W 1016,6 2,6 0 0,4
26.05.2019 23:00:00 14,3 13,5 14,1 18,0 4 2 6 4 N 1016,9 1,9 0 0,6
26.05.2019 22:00:00 14,3 12,8 14,2 18,0 0 0 5 3 N 1016,7 4,9 0 0,0
26.05.2019 21:00:00 14,4 12,8 14,7 18,1 3 2 9 5 W 1016,8 27 0 0,0
26.05.2019 20:00:00 14,5 12,5 15,2 18,1 5 3 22 12 NW 1017,2 34 0 0,0
26.05.2019 19:00:00 16,6 12,5 17,0 18,0 10 5 21 12 SW 1017,2 50 22 0,0
26.05.2019 18:00:00 15,8 12,7 15,7 18,1 10 6 18 10 WSW 1017,7 38 0 0,0
26.05.2019 17:00:00 15,1 12,6 16,0 18,0 10 5 18 10 NW 1018,4 43 0 0,0
26.05.2019 16:00:00 14,9 12,0 16,3 17,9 12 7 19 11 NNW 1018,8 56 0 0,0
26.05.2019 15:00:00 15,5 12,3 17,0 17,9 11 6 21 11 NW 1019,0 56 0 0,0
26.05.2019 14:00:00 15,7 11,7 17,4 17,8 14 7 25 13 WNW 1019,3 58 0 0,0
26.05.2019 13:00:00 15,6 11,6 16,0 17,8 13 7 27 14 NW 1019,8 57 2 0,0
26.05.2019 12:00:00 14,5 11,3 14,6 17,8 18 10 29 16 WNW 1020,0 60 0 0,0
26.05.2019 11:00:00 13,9 11,8 14,3 17,8 20 11 30 16 NW 1020,0 12 3 0,0
26.05.2019 10:00:00 14,2 11,4 14,1 17,9 16 9 26 14 W 1020,0 60 0 0,0
26.05.2019 09:00:00 14,5 11,6 14,1 18,0 11 6 21 11 W 1020,1 59 0 0,0
26.05.2019 08:00:00 13,7 11,7 13,6 18,1 11 6 19 10 W 1020,1 42 0 0,0
26.05.2019 07:00:00 13,4 12,5 13,2 18,3 7 4 13 7 SW 1020,1 29 0 0,0
26.05.2019 06:00:00 13,5 12,1 13,4 18,5 6 3 12 6 WSW 1020,0 40 0 0,0
26.05.2019 05:00:00 13,6 12,2 13,2 18,7 8 4 18 10 WSW 1020,2 42 0 0,0
26.05.2019 04:00:00 13,5 11,9 13,4 18,9 11 6 19 10 WNW 1020,7 44 0 0,0
26.05.2019 03:00:00 13,5 12,4 13,3 19,1 11 6 23 12 W 1021,2 29 0 0,0
26.05.2019 02:00:00 13,4 12,1 13,3 19,4 19 10 33 18 WNW 1021,5 11 0 0,0
26.05.2019 01:00:00 13,3 12,5 13,3 19,6 13 7 29 16 WNW 1022,0 20 0 0,0
26.05.2019 00:00:00 13,1 12,5 12,0 19,9 19 11 30 16 NW 1022,1 13 0 0,0
25.05.2019 23:00:00 12,7 11,6 10,6 20,1 12 7 20 11 NNW 1022,1 16 0 0,0
25.05.2019 22:00:00 12,5 10,9 11,8 20,3 10 5 18 10 NW 1021,8 19 26 0,0
25.05.2019 21:00:00 14,0 11,2 15,6 20,4 10 6 19 10 NW 1021,8 26 60 0,0
25.05.2019 20:00:00 14,7 11,5 16,2 20,3 10 5 23 12 NNW 1021,7 20 41 0,0
25.05.2019 19:00:00 14,8 11,4 17,8 20,0 16 9 27 15 NNW 1021,8 16 50 0,0
25.05.2019 18:00:00 16,6 12,9 22,1 19,7 17 9 29 15 NNW 1021,6 19 60 0,0
25.05.2019 17:00:00 16,1 12,5 21,8 19,1 16 8 29 15 N 1021,8 19 58 0,0
25.05.2019 16:00:00 17,0 12,9 24,6 18,5 15 8 29 16 NNW 1021,8 18 60 0,0
25.05.2019 15:00:00 17,6 12,9 23,9 17,8 16 9 29 16 NNW 1022,2 20 56 0,0
25.05.2019 14:00:00 17,5 12,4 24,2 17,3 15 8 28 15 WNW 1022,2 29 60 0,0
25.05.2019 13:00:00 16,7 11,8 19,7 16,9 16 9 29 16 WNW 1022,4 20 55 0,0
25.05.2019 12:00:00 15,6 11,8 18,3 16,8 18 10 29 15 NW 1022,6 26 40 0,0
25.05.2019 11:00:00 15,6 12,2 16,3 16,7 16 9 33 18 NW 1022,6 20 37 0,0
25.05.2019 10:00:00 14,8 11,6 15,0 16,7 21 11 32 18 WNW 1022,1 39 36 0,0
25.05.2019 09:00:00 13,4 11,3 13,8 16,9 16 9 26 14 NW 1021,9 20 3 0,0
25.05.2019 08:00:00 13,0 11,6 12,8 17,0 15 8 26 14 WNW 1021,5 26 0 0,0
25.05.2019 07:00:00 12,6 11,3 12,4 17,1 13 7 31 17 NW 1021,3 20 0 0,0
25.05.2019 06:00:00 12,6 11,5 12,3 17,3 17 9 33 18 NW 1020,9 19 0 0,0
25.05.2019 05:00:00 12,6 11,5 12,2 17,5 19 10 31 17 WNW 1020,8 19 0 0,0
25.05.2019 04:00:00 12,7 11,4 12,2 17,7 19 11 35 19 WNW 1020,8 29 0 0,0
25.05.2019 03:00:00 12,8 11,5 12,6 17,9 16 9 30 16 WNW 1020,9 27 0 0,0
25.05.2019 02:00:00 12,8 11,5 12,0 18,1 16 9 33 18 WNW 1021,0 33 0 0,0
25.05.2019 01:00:00 12,5 11,4 12,0 18,4 23 12 34 18 WNW 1021,1 34 0 0,0
25.05.2019 00:00:00 12,5 11,6 11,7 18,6 19 11 29 15 WNW 1021,0 32 0 0,0
24.05.2019 23:00:00 12,3 11,2 11,7 18,9 16 9 31 17 WNW 1021,1 28 0 0,0
24.05.2019 22:00:00 12,7 11,3 12,4 19,0 21 11 41 22 WNW 1020,6 35 26 0,0
24.05.2019 21:00:00 13,5 11,5 14,0 19,1 26 14 37 20 NW 1020,4 33 56 0,0
24.05.2019 20:00:00 14,4 11,9 14,8 19,2 23 12 37 20 NW 1020,1 17 16 0,0
24.05.2019 19:00:00 14,3 12,0 15,1 19,1 24 13 39 21 NW 1020,2 27 1 0,0
24.05.2019 18:00:00 15,5 12,3 17,8 18,7 20 11 36 19 NW 1020,3 31 21 0,0
24.05.2019 17:00:00 16,1 11,7 21,2 18,3 22 12 38 21 NNW 1020,5 29 56 0,0
24.05.2019 16:00:00 16,6 11,9 17,9 17,9 24 13 38 20 NNW 1020,6 33 41 0,0
24.05.2019 15:00:00 15,4 10,6 18,3 17,4 23 13 37 20 NW 1020,7 36 34 0,0
24.05.2019 14:00:00 15,5 10,3 18,8 17,1 25 13 37 20 NNW 1020,6 39 32 0,0
24.05.2019 13:00:00 14,7 9,9 18,7 16,8 23 12 36 19 NNW 1020,7 41 41 0,0
24.05.2019 12:00:00 15,2 10,4 18,3 16,5 22 12 35 19 NNW 1020,7 38 47 0,0
24.05.2019 11:00:00 14,6 10,0 17,1 16,5 24 13 37 20 NNW 1020,5 40 44 0,0
24.05.2019 10:00:00 14,7 10,1 14,4 16,6 22 12 34 18 NNW 1020,0 41 43 0,0
24.05.2019 09:00:00 13,0 9,6 13,3 16,7 19 11 30 16 NW 1019,5 20 44 0,0
24.05.2019 08:00:00 12,4 10,3 10,1 16,9 15 8 22 12 NNW 1019,2 38 15 0,0
24.05.2019 07:00:00 10,8 9,7 9,3 17,2 13 7 23 13 NW 1019,1 18 3 0,0
24.05.2019 06:00:00 10,6 10,1 5,0 17,4 15 8 24 13 NW 1018,6 19 0 0,0
24.05.2019 05:00:00 9,6 9,1 5,8 17,7 5 3 12 6 W 1018,1 2,7 0 0,0
24.05.2019 04:00:00 10,1 9,5 8,6 18,0 7 4 15 8 W 1018,3 4,4 0 0,0
24.05.2019 03:00:00 10,7 9,8 9,3 18,2 6 3 11 6 WNW 1018,4 10 0 0,0
24.05.2019 02:00:00 11,4 10,1 10,6 18,5 7 4 10 5 W 1018,8 14 0 0,0
24.05.2019 01:00:00 11,4 10,0 10,2 18,7 8 4 14 7 WNW 1018,9 17 0 0,0
24.05.2019 00:00:00 11,9 9,5 11,3 19,0 7 4 13 7 NW 1018,8 24 0 0,0
23.05.2019 23:00:00 11,8 9,5 10,6 19,1 7 4 11 6 NNW 1018,8 24 0 0,0
23.05.2019 22:00:00 11,8 9,2 11,2 19,3 6 3 14 8 NW 1018,4 24 0 0,0
23.05.2019 21:00:00 12,9 8,8 13,0 19,4 11 6 19 10 NNW 1018,0 39 0 0,0
23.05.2019 20:00:00 14,3 7,3 16,5 19,3 10 5 18 10 N 1018,0 53 41 0,0
23.05.2019 19:00:00 15,2 5,7 18,6 19,1 10 5 22 12 N 1018,0 60 40 0,0
23.05.2019 18:00:00 15,5 7,3 18,9 18,8 16 8 29 16 N 1017,9 34 40 0,0
23.05.2019 17:00:00 16,5 8,9 19,8 18,3 17 9 26 14 N 1017,7 37 41 0,0
23.05.2019 16:00:00 16,5 8,2 19,7 17,9 19 10 26 14 N 1017,7 40 42 0,0
23.05.2019 15:00:00 16,7 7,6 21,4 17,4 16 9 25 13 NNW 1017,7 42 55 0,0
23.05.2019 14:00:00 16,4 6,8 21,3 16,9 18 10 24 13 N 1017,9 46 39 0,0
23.05.2019 13:00:00 17,4 10,0 21,2 16,5 10 6 19 10 N 1018,2 19 48 0,0
23.05.2019 12:00:00 16,4 9,6 20,6 16,4 6 3 19 10 N 1018,4 40 27 0,0
23.05.2019 11:00:00 17,0 7,9 17,8 16,3 10 5 17 9 N 1018,3 52 57 0,0
23.05.2019 10:00:00 16,2 9,1 17,2 16,4 6 4 12 6 NNW 1018,2 46 57 0,0
23.05.2019 09:00:00 15,4 10,2 14,1 16,6 2 1 7 4 SE 1018,1 21 58 0,0
23.05.2019 08:00:00 12,2 10,1 6,5 16,8 5 3 12 6 SW 1017,9 16 47 0,0
23.05.2019 07:00:00 10,3 9,2 6,6 17,1 3 1 12 6 WSW 1017,9 12 0 0,0
23.05.2019 06:00:00 10,8 8,9 8,8 17,3 8 4 13 7 WSW 1018,2 15 0 0,0
23.05.2019 05:00:00 11,1 9,2 9,7 17,5 8 4 11 6 SSW 1018,1 20 0 0,0
23.05.2019 04:00:00 12,0 9,2 9,8 17,8 6 3 10 6 SSW 1018,1 24 0 0,0
23.05.2019 03:00:00 12,7 9,1 10,0 18,0 9 5 13 7 WSW 1018,1 29 0 0,0
23.05.2019 02:00:00 14,2 9,4 10,9 18,2 8 4 10 5 SSW 1018,5 33 0 0,0
23.05.2019 01:00:00 14,1 9,7 10,9 18,5 7 4 9 5 SSW 1018,8 39 0 0,0
23.05.2019 00:00:00 14,3 9,5 8,8 18,7 8 4 9 5 SSW 1018,9 46 0 0,0
22.05.2019 23:00:00 14,9 9,3 10,6 18,9 4 2 11 6 S 1019,1 53 0 0,0
22.05.2019 22:00:00 16,6 8,5 14,1 19,0 8 5 16 8 ESE 1018,8 15 24 0,0
22.05.2019 21:00:00 18,8 9,3 19,0 19,0 11 6 19 11 E 1018,6 56 41 0,0
22.05.2019 20:00:00 20,2 9,7 22,2 18,9 11 6 22 12 E 1018,7 49 48 0,0
22.05.2019 19:00:00 21,0 10,2 22,8 18,6 14 8 23 12 ENE 1018,8 49 51 0,0
22.05.2019 18:00:00 20,9 10,1 22,3 18,3 15 8 24 13 E 1019,3 20 38 0,0
22.05.2019 17:00:00 21,3 10,7 21,7 17,9 13 7 23 13 E 1019,6 20 33 0,0
22.05.2019 16:00:00 19,9 10,6 21,5 17,5 16 8 27 15 NNE 1020,0 37 22 0,0
22.05.2019 15:00:00 19,6 10,3 20,9 17,0 16 8 25 13 N 1020,5 26 29 0,0
22.05.2019 14:00:00 19,9 11,4 22,9 16,5 7 4 21 12 E 1020,9 27 43 0,0
22.05.2019 13:00:00 19,8 10,2 24,9 16,1 4 2 15 8 NW 1021,1 25 51 0,0
22.05.2019 12:00:00 18,4 9,7 23,8 15,9 7 4 14 8 NE 1021,2 48 60 0,2
22.05.2019 11:00:00 17,3 11,3 18,6 15,8 4 2 10 6 NNE 1021,2 20 54 0,0
22.05.2019 10:00:00 14,6 11,2 14,2 15,9 5 3 10 5 E 1021,5 18 52 0,0
22.05.2019 09:00:00 12,2 12,0 10,6 16,0 0 0 6 3 N 1021,2 6 10 0,0
22.05.2019 08:00:00 10,2 10,0 7,1 16,3 3 1 5 3 SSW 1021,0 3,7 45 0,0
22.05.2019 07:00:00 7,6 7,3 5,6 16,5 5 3 6 4 SSW 1020,9 0,1 14 0,0
22.05.2019 06:00:00 8,1 8,0 3,4 16,8 5 3 6 3 SSW 1020,9 0,1 0 0,0
22.05.2019 05:00:00 7,9 7,6 6,3 17,1 5 3 7 4 SSW 1021,3 0,1 0 0,0
22.05.2019 04:00:00 8,6 8,3 3,7 17,4 4 2 7 4 SSW 1021,6 0,1 0 0,0
22.05.2019 03:00:00 8,8 8,5 4,7 17,8 4 2 9 5 W 1021,6 0,2 0 0,0
22.05.2019 02:00:00 8,8 8,3 3,5 18,1 6 3 9 5 SSW 1021,5 0,2 0 0,2
22.05.2019 01:00:00 10,0 9,5 4,0 18,5 3 1 8 4 W 1021,4 0,2 0 0,0
22.05.2019 00:00:00 10,1 9,5 4,2 18,8 6 3 8 5 WSW 1021,4 1,0 0 0,0
21.05.2019 23:00:00 11,0 10,1 5,0 19,1 3 2 8 4 W 1021,3 5 0 0,0
21.05.2019 22:00:00 12,0 10,1 9,5 19,2 5 3 13 7 NW 1021,1 10 22 0,0
21.05.2019 21:00:00 13,9 11,1 16,0 19,3 9 5 19 10 N 1020,6 18 60 0,0
21.05.2019 20:00:00 15,1 11,3 17,7 19,2 12 7 21 11 N 1020,4 20 57 0,0
21.05.2019 19:00:00 16,4 9,6 21,3 18,9 16 9 24 13 N 1020,2 54 60 0,0
21.05.2019 18:00:00 17,0 8,9 23,4 18,5 14 7 24 13 NNE 1020,2 20 60 0,0
21.05.2019 17:00:00 17,2 8,6 24,4 18,0 17 9 25 14 N 1020,2 59 60 0,0
21.05.2019 16:00:00 17,0 8,9 24,5 17,3 15 8 36 19 N 1020,3 48 60 0,0
21.05.2019 15:00:00 17,0 9,9 24,9 16,6 18 10 25 14 NNW 1020,4 48 60 0,0
21.05.2019 14:00:00 16,6 8,5 23,9 16,0 16 8 24 13 N 1020,2 49 60 0,0
21.05.2019 13:00:00 16,5 10,3 23,3 15,6 11 6 18 10 N 1020,1 20 60 0,0
21.05.2019 12:00:00 15,3 10,3 21,2 15,3 9 5 20 11 N 1020,0 20 60 0,0
21.05.2019 11:00:00 14,6 10,6 15,8 15,3 13 7 20 11 NNW 1019,8 41 57 0,0
21.05.2019 10:00:00 12,8 11,4 13,2 15,3 6 3 14 8 WNW 1019,5 12 48 0,0
21.05.2019 09:00:00 11,5 11,2 11,6 15,4 5 3 13 7 WNW 1019,2 4,0 5 0,0
21.05.2019 08:00:00 10,6 10,4 9,5 15,6 4 2 9 5 W 1018,8 2,6 33 0,0
21.05.2019 07:00:00 9,1 9,0 8,2 15,8 5 3 11 6 WSW 1018,5 0,7 7 0,0
21.05.2019 06:00:00 8,5 8,4 6,9 16,0 8 4 10 5 SSW 1018,3 0,1 0 0,0

tt = Température de l'air
td = dewpoint
tt 5cm = Température de l'air 5cm
tt -20cm = Température de l'air -20cm
ff = Vitesse du vent
fx = gusts
dd = Direction du vent
ppp = reduced air pressure
vv = visibility
sd = Ensoleillement
rr = Quantités de précipitations

stations d'obs. à proximité